This is the latest recevied weather packets stored in our database for station/object HK6RM-18. If no packets are shown the sender has not sent any weather packets the latest 10 day(s).
| Time | Temp. | Humidity | Pressure | Rain* | Wind** | Luminosity | Snow |
|---|---|---|---|---|---|---|---|
| 1777397060 | 22.22° C | 76% | 1013 hPa | 0 mm | - | - | - |
| 1777396158 | 22.22° C | 76% | 1013 hPa | 0 mm | - | - | - |
| 1777395258 | 22.22° C | 76% | 1013 hPa | 0 mm | - | - | - |
| 1777394357 | 22.22° C | 76% | 1013 hPa | 0 mm | - | - | - |
| 1777393456 | 22.22° C | 75% | 1014 hPa | 0 mm | - | - | - |
| 1777392555 | 22.22° C | 74% | 1014 hPa | 0 mm | - | - | - |
| 1777391655 | 22.22° C | 72% | 1014 hPa | 0 mm | - | - | - |
| 1777390754 | 21.67° C | 72% | 1014 hPa | 0 mm | - | - | - |
| 1777389854 | 22.22° C | 72% | 1015 hPa | 0 mm | - | - | - |
| 1777388953 | 22.78° C | 72% | 1015 hPa | 0 mm | - | - | - |
| 1777388053 | 21.11° C | 82% | 1015 hPa | 0 mm | - | - | - |
| 1777387151 | 19.44° C | 82% | 1015 hPa | 0 mm | - | - | - |
| 1777386249 | 20° C | 82% | 1016 hPa | 0 mm | - | - | - |
| 1777385347 | 20.56° C | 82% | 1016 hPa | 0 mm | - | - | - |
| 1777384446 | 21.11° C | 82% | 1016 hPa | 0 mm | - | - | - |
| 1777383544 | 17.78° C | 77% | 1016 hPa | 0 mm | - | - | - |
| 1777382644 | 18.33° C | 77% | 1016 hPa | 0 mm | - | - | - |
| 1777381743 | 18.89° C | 77% | 1016 hPa | 0 mm | - | - | - |
| 1777380841 | 19.44° C | 77% | 1016 hPa | 0 mm | - | - | - |
| 1777379937 | 17.22° C | 88% | 1016 hPa | 0 mm | - | - | - |
| 1777379036 | 17.78° C | 88% | 1016 hPa | 0 mm | - | - | - |
| 1777378134 | 17.22° C | 88% | 1016 hPa | 0 mm | - | - | - |
| 1777377234 | 17.78° C | 88% | 1016 hPa | 0 mm | - | - | - |
| 1777376332 | 18.33° C | 88% | 1016 hPa | 0 mm | - | - | - |
| 1777375432 | 18.89° C | 88% | 1016 hPa | 0 mm | - | - | - |
* Rain latest hour (hover to see other rain measurements)
** Current wind speed in m/s (hover to see current wind gust speed)